This is the latest recevied weather packets stored in our database for station/object N4DBJ. If no packets are shown the sender has not sent any weather packets the latest 10 day(s).
| Time | Temp. | Humidity | Pressure | Rain* | Wind** | Luminosity | Snow |
|---|---|---|---|---|---|---|---|
| 1777940932 | 22.78° C | 50% | 1007 hPa | 0 mm | - | 4 W/m² | - |
| 1777940629 | 22.78° C | 49% | 1007.2 hPa | 0 mm | - | 7 W/m² | - |
| 1777940328 | 23.33° C | 49% | 1007 hPa | 0 mm | - | 10 W/m² | - |
| 1777940024 | 23.33° C | 49% | 1007 hPa | 0 mm | - | 13 W/m² | - |
| 1777939721 | 23.33° C | 48% | 1007 hPa | 0 mm | - | 16 W/m² | - |
| 1777939419 | 23.89° C | 47% | 1007.3 hPa | 0 mm | - | 19 W/m² | - |
| 1777939115 | 23.89° C | 47% | 1007.2 hPa | 0 mm | - | 23 W/m² | - |
| 1777938813 | 23.89° C | 46% | 1007.1 hPa | 0 mm | - | 26 W/m² | - |
| 1777938509 | 23.89° C | 46% | 1007.2 hPa | 0 mm | - | 29 W/m² | - |
| 1777938207 | 24.44° C | 47% | 1007.1 hPa | 0 mm | - | 32 W/m² | - |
| 1777937903 | 24.44° C | 46% | 1007.3 hPa | 0 mm | - | 34 W/m² | - |
| 1777937599 | 25° C | 45% | 1007.3 hPa | 0 mm | - | 37 W/m² | - |
| 1777937296 | 25° C | 44% | 1007.4 hPa | 0 mm | - | 46 W/m² | - |
| 1777936993 | 25° C | 44% | 1007.4 hPa | 0 mm | - | 52 W/m² | - |
| 1777936690 | 25.56° C | 44% | 1007.4 hPa | 0 mm | - | 93 W/m² | - |
| 1777936386 | 25.56° C | 44% | 1007.5 hPa | 0 mm | - | 57 W/m² | - |
| 1777936082 | 25.56° C | 43% | 1007.7 hPa | 0 mm | - | 48 W/m² | - |
| 1777935781 | 25.56° C | 42% | 1007.4 hPa | 0 mm | - | 127 W/m² | - |
| 1777935479 | 25.56° C | 43% | 1007.6 hPa | 0 mm | - | 51 W/m² | - |
| 1777935175 | 26.11° C | 42% | 1007.7 hPa | 0 mm | - | 111 W/m² | - |
| 1777934872 | 26.11° C | 41% | 1007.4 hPa | 0 mm | - | 170 W/m² | - |
| 1777934570 | 26.11° C | 43% | 1007.5 hPa | 0 mm | - | 193 W/m² | - |
| 1777934266 | 26.11° C | 43% | 1007.6 hPa | 0 mm | - | 206 W/m² | - |
| 1777933961 | 25.56° C | 43% | 1007.7 hPa | 0 mm | - | 96 W/m² | - |
| 1777933659 | 25.56° C | 45% | 1007.6 hPa | 0 mm | - | 239 W/m² | - |
* Rain latest hour (hover to see other rain measurements)
** Current wind speed in m/s (hover to see current wind gust speed)